Tracking 18032 objects as of 27-March-2017
HD Live streaming from Space Station
objects crossing your sky now

ANNA 1B

Track ANNA 1B now!
10-day predictions
ANNA 1B is classified as:


NORAD ID: 446
Int'l Code: 1962-060A
Perigee: 1,081.3 km
Apogee: 1,187.0 km
Inclination: 50.1 °
Period: 107.8 minutes
Semi major axis: 7505 km
RCS: 0.8414 m2 (medium)
Launch date: October 31, 1962
Source: United States (US)
Launch site: AIR FORCE EASTERN TEST RANGE (AFETR)
Your satellite tracking list
Your tracking list is empty





NASA's NSSDC Master Catalog

Two Line Element Set (TLE):
1   446U 62060A   17084.87887595 -.00000121 +00000-0 +11274-4 0  9999
2   446 050.1423 295.9807 0070428 092.5395 005.2960 13.35257439653418
Source of the keplerian elements: AFSPC